Погода в Беже

Португалия     38°00′46″N   7°52′06″W
темп.,
°C
ветер,
м/с
пор.,
м/с
влажн.,
%
обл.,
%
осадки,
мм/ч
давл.,
гПа
погр.,
м
24 января, пн
пн2400:00+8ююв117988 0.0 102311
03:00+7вюв008750 0.0 102310
06:00+6св229134 0.0 102310
09:00+8всв22805 0.0 102591
12:00+14всв11595 0.0 1025577
15:00+16всв115442 0.0 10231034
18:00+11св117158 0.0 102410
21:00+8св22825 0.0 102511
25 января, вт
вт2500:00+8св118447 0.0 102610
03:00+6св228957 0.0 102627
06:00+6св34905 0.0 102655
09:00+8св36775 0.0 1028133
12:00+14св44535 0.0 1027653
15:00+16св34465 0.0 10251450
18:00+12ссв485894 0.0 1025158
21:00+9св49685 0.0 1027148
26 января, ср
ср2600:00+7св33799 0.0 102739
03:00+6св34815 0.0 102661
06:00+5св33845 0.0 102546
09:00+8св367061 0.0 1026136
12:00+13всв4556100 0.0 1026524
15:00+13ссв5859100 0.0 1023403
18:00+12ссв486193 0.0 1023202
21:00+11св51066100 0.0 1024272
27 января, чт
чт2700:00+10св367187 0.0 1024137
03:00+10св2372100 0.0 102470
06:00+9св357496 0.0 1024118
09:00+10св46745 0.0 1025175
12:00+16всв345335 0.0 10251099
15:00+16всв235038 0.1 10231427
18:00+12всв227392 0.5 102414
21:00+10св2276100 0.0 102529
28 января, пт
пт2800:00+8всв22815 0.0 102616
03:00+7всв118283 0.0 102611
06:00+6св22865 0.0 102610
09:00+9св37770 0.0 1028170
12:00+15в45490 0.0 1027944
15:00+18всв354117 0.0 10251820
18:00+12ссв226071 0.0 102625
21:00+9св34681 0.0 102863